Ashland, WI

4:14 AM CDT on April 28, 2017 (GMT -0500)
Kennedy Memorial

Weather History for KASX - March, 2014

Change the Weather History Date:

Wednesday, March 26, 2014

  Actual Average Record
Temperature  
Mean Temperature 12 °F -  
Max Temperature 32 °F 42 °F 75 °F (2007)
Min Temperature -7 °F 20 °F -16 °F (1965)
Degree Days  
Heating Degree Days 54    
Moisture  
Dew Point 5 °F    
Average Humidity 60    
Maximum Humidity 91    
Minimum Humidity 42    
Precipitation  
Precipitation 0.00 in - - ()
Sea Level Pressure  
Sea Level Pressure 30.04 in    
Wind  
Wind Speed 6 mph (SSW)    
Max Wind Speed 14 mph    
Max Gust Speed 20 mph    
Visibility 10 miles    
Events      
Averages and records for this station are not official NWS values.
T = Trace of Precipitation, MM = Missing Value Source: NWS Daily Summary

Daily Weather History Graph

Daily Weather History Graph

Search for Another Location

Airport or City:

Trip Planner

Search our weather history database for the weather conditions in past years. The results will help you decide how hot, cold, wet, or windy it might be!

Date:

Astronomy

Mar. 26, 2014 Rise Set
Actual Time 6:54 AM CDT 7:24 PM CDT
Civil Twilight 6:24 AM CDT 7:54 PM CDT
Nautical Twilight 5:48 AM CDT 8:30 PM CDT
Astronomical Twilight 5:11 AM CDT 9:08 PM CDT
Moon 4:18 AM CDT (3/26) 2:49 PM CDT (3/26)
Length of Visible Light 13h 30m
Length of Day
12h 29m
Waning Crescent, 21% of the Moon is Illuminated
Mar 26
Waning Crescent
Mar 30
New
Apr 7
First Quarter
Apr 15
Full
Apr 22
Last Quarter

Hourly Weather History & Observations

Time (CDT) Temp. Windchill Dew Point Humidity Pressure Visibility Wind Dir Wind Speed Gust Speed Precip Events Conditions
12:53 AM 7.0 °F -5.7 °F -2.0 °F 67% 30.19 in 10.0 mi WSW 8.1 mph - N/A   Clear
1:53 AM 7.0 °F -5.7 °F -2.0 °F 67% 30.19 in 10.0 mi WSW 8.1 mph - N/A   Clear
2:53 AM 1.9 °F -9.2 °F -2.9 °F 80% 30.19 in 10.0 mi WSW 5.8 mph - N/A   Clear
3:53 AM -0.0 °F -11.6 °F -2.9 °F 88% 30.19 in 10.0 mi WSW 5.8 mph - N/A   Clear
4:53 AM -0.0 °F -9.9 °F -2.9 °F 88% 30.19 in 10.0 mi SW 4.6 mph - N/A   Clear
5:53 AM -0.9 °F -8.9 °F -4.0 °F 87% 30.19 in 10.0 mi SSW 3.5 mph - N/A   Clear
6:53 AM -7.1 °F - -9.0 °F 91% 30.19 in 10.0 mi Calm Calm - N/A   Clear
7:53 AM -0.9 °F -8.9 °F -4.0 °F 87% 30.19 in 10.0 mi West 3.5 mph - N/A   Clear
8:53 AM 6.1 °F - -0.9 °F 73% 30.18 in 10.0 mi Calm Calm - N/A   Clear
9:53 AM 17.1 °F 11.7 °F 3.0 °F 54% 30.16 in 10.0 mi Variable 3.5 mph - N/A   Clear
10:53 AM 21.9 °F 11.7 °F 5.0 °F 48% 30.14 in 10.0 mi SSW 9.2 mph - N/A   Overcast
11:53 AM 23.0 °F 10.6 °F 7.0 °F 50% 30.11 in 10.0 mi SSW 13.8 mph 18.4 mph N/A   Overcast
12:53 PM 26.1 °F 15.0 °F 8.1 °F 47% 30.08 in 10.0 mi SSW 12.7 mph 19.6 mph N/A   Overcast
1:53 PM 26.1 °F 18.4 °F 8.1 °F 47% 30.04 in 10.0 mi South 6.9 mph - N/A   Overcast
2:53 PM 27.0 °F 19.5 °F 10.0 °F 49% 29.99 in 10.0 mi South 6.9 mph - N/A   Overcast
3:53 PM 28.0 °F 19.3 °F 9.0 °F 45% 29.95 in 10.0 mi SE 9.2 mph - N/A   Overcast
4:53 PM 30.0 °F 23.2 °F 10.0 °F 43% 29.91 in 10.0 mi SE 6.9 mph 16.1 mph N/A   Overcast
5:53 PM 30.9 °F 23.5 °F 10.0 °F 42% 29.89 in 10.0 mi SSE 8.1 mph - N/A   Clear
6:53 PM 30.0 °F 22.4 °F 10.0 °F 43% 29.90 in 10.0 mi South 8.1 mph - N/A   Clear
7:53 PM 30.0 °F 23.2 °F 10.9 °F 45% 29.89 in 10.0 mi Variable 6.9 mph - N/A   Overcast
8:53 PM 30.0 °F 23.2 °F 12.0 °F 47% 29.86 in 10.0 mi Variable 6.9 mph - N/A   Overcast
9:53 PM 30.0 °F 26.5 °F 14.0 °F 51% 29.83 in 10.0 mi Variable 3.5 mph - N/A   Overcast
10:53 PM 30.0 °F 25.2 °F 15.1 °F 54% 29.80 in 10.0 mi SE 4.6 mph - N/A   Overcast
11:53 PM 30.0 °F 26.5 °F 16.0 °F 56% 29.75 in 10.0 mi Variable 3.5 mph - N/A   Overcast